Regional Weather Roundup
Issued by NWS

Home | Current Version | Previous Version | Graphics & Text | Print | Product List | Glossary Off
Versions: 1 2 3 4 5 6 7 8 9 10 11 12 13 14 15 16 17 18 19 20 21 22 23 24 25 26 27 28 29 30 31 32 33 34 35 36 37 38 39 40 41 42 43 44 45 46 47 48 49 50

000
ASUS43 KLSX 240910
RWRMO

WEATHER SUMMARY FOR MISSOURI
NATIONAL WEATHER SERVICE SPRINGFIELD MO
400 AM CDT WED MAY 24 2017

NOTE: "FAIR" INDICATES FEW OR NO CLOUDS BELOW 12,000 FEET WITH NO
       SIGNIFICANT WEATHER AND/OR OBSTRUCTIONS TO VISIBILITY.
       CURRENT SKY AND/OR WEATHER CONDITIONS ARE NOT AVAILABLE FOR
       CHILLICOTHE AND FARMINGTON.

MOZ001>031-035>038-043-044-053-054-241000-
...NORTHERN AND WESTERN MISSOURI...

CITY           SKY/WX    TMP DP  RH WIND       PRES   REMARKS
KANSAS CTY INT PTCLDY    48  46  93 NW8       29.73F
KANSAS C DTWN  PTCLDY    50  47  89 NW6       29.73F
LEE`S SUMMIT   CLEAR     48  47  96 NW8       29.73F
ST JOSEPH      PTCLDY    50  48  93 NW9       29.74F
CHILLICOTHE      N/A     48  45  89 CALM      29.71F
KIRKSVILLE     CLEAR     45  44  97 W7        29.68F

$$
MOZ066>068-077>081-088>096-101>105-241000-
...SOUTHWEST MISSOURI...

CITY           SKY/WX    TMP DP  RH WIND       PRES   REMARKS
SPRINGFIELD    MOCLDY    52  49  89 NW5       29.70F
JOPLIN         CLOUDY    54  48  80 NW8       29.74F
BRANSON        CLOUDY    54  48  82 NW7       29.71F

$$
MOZ032>034-039>042-045>050-055>058-069>072-241000-
...CENTRAL MISSOURI...

CITY           SKY/WX    TMP DP  RH WIND       PRES   REMARKS
COLUMBIA       CLOUDY    52  49  89 NW7       29.67F
JEFFERSON CITY CLOUDY    55  48  77 NW6       29.67F
ROLLA          MOCLDY    48  47  96 W5        29.65F
SEDALIA        PTCLDY    52  49  89 NW12      29.70F
WHITEMAN AFB   PTCLDY    50  50 100 NW8       29.69F
WARRENSBURG    CLEAR     46  45  93 W5        29.72S
OSAGE BEACH    CLOUDY    54  47  77 NW5       29.69F

$$
MOZ051-052-059>065-241000-
...EAST CENTRAL MISSOURI...

CITY           SKY/WX    TMP DP  RH WIND       PRES   REMARKS
ST LOUIS INTL  PTCLDY    54  49  83 CALM      29.63F
SPIRIT OF STL  PTCLDY    51  49  92 W5        29.63F
ST CHARLES     PTCLDY    53  51  93 NW6       29.62F

$$
MOZ072>076-082>087-097>100-106>115-241000-
...SOUTH CENTRAL AND SOUTHEAST MISSOURI...

CITY           SKY/WX    TMP DP  RH WIND       PRES   REMARKS
CAPE GIRARDEAU CLOUDY    58  55  90 NW3       29.60F
FARMINGTON     PTCLDY    53  49  86 W3        29.64F
POPLAR BLUFF   CLOUDY    58  57  97 NW6       29.62F
WEST PLAINS    PTCLDY    51  47  86 NW7       29.67F

$$




USA.gov is the U.S. government's official web portal to all federal, state and local government web resources and services.